Weather History for Rogers City, MI

Change the Weather History Date:

Thursday, January 23, 2014

  Actual Average (KAPN) Record (KAPN)
Temperature  
Mean Temperature 2 °F 18 °F  
Max Temperature 10 °F 27 °F 49 °F (1989)
Min Temperature -7 °F 11 °F -23 °F (1948)
Degree Days  
Heating Degree Days 64 46  
Month to date heating degree days 1047  
Since 1 July heating degree days 4108  
Moisture  
Dew Point -3 °F    
Average Humidity 78    
Maximum Humidity 87    
Minimum Humidity 63    
Precipitation  
Precipitation 0.00 in 0.05 in 0.41 in (1965)
Month to date precipitation 1.29  
Year to date precipitation 1.29  
Snow  
Snow 0.00 in 0.70 in 4.60 in (1965)
Month to date snowfall 16.0  
Since 1 July snowfall 43.3  
Snow Depth -    
Sea Level Pressure  
Sea Level Pressure 30.29 in    
Wind  
Wind Speed 12 mph (NNW)    
Max Wind Speed 20 mph    
Max Gust Speed 26 mph    
Visibility 6 miles    
Events Snow    
T = Trace of Precipitation, MM = Missing Value Source: NWS Daily Summary

Daily Weather History Graph

Daily Weather History Graph

Search for Another Location

Airport:

Trip Planner

Search our weather history database for the weather conditions in past years. The results will help you decide how hot, cold, wet, or windy it might be!

Date:

Astronomy

Jan. 23, 2014 Rise Set
Actual Time 8:05 AM EST 5:29 PM EST
Civil Twilight 7:33 AM EST 6:01 PM EST
Nautical Twilight 6:56 AM EST 6:37 PM EST
Astronomical Twilight 6:21 AM EST 7:12 PM EST
Moon 12:20 AM EST (1/23) 11:17 AM EST (1/23)
Length of Visible Light 10h 28m
Length of Day
9h 24m
Waning Gibbous, 55% of the Moon is Illuminated
Jan 23
Waning Gibbous
Jan 24
Last Quarter
Jan 30
New
Feb 6
First Quarter
Feb 14
Full

Hourly Weather History & Observations

Time (EST) Temp. Windchill Dew Point Humidity Pressure Visibility Wind Dir Wind Speed Gust Speed Precip Events Conditions
12:15 AM 9.9 °F -7.3 °F 6.8 °F 87% 30.00 in 1.5 mi ENE 16.1 mph 23.0 mph N/A Snow Light Snow
12:34 AM 10.2 °F -6.3 °F 7.0 °F 87% 30.01 in 1.8 mi ENE 15.0 mph 23.0 mph N/A Snow Light Snow
12:55 AM 9.9 °F -7.9 °F 6.6 °F 87% 30.01 in 1.8 mi ENE 17.3 mph 23.0 mph N/A Snow Light Snow
1:14 AM 9.3 °F -8.6 °F 5.9 °F 86% 30.02 in 1.8 mi ENE 17.3 mph 21.9 mph N/A Snow Light Snow
1:35 AM 9.0 °F -9.0 °F 5.2 °F 85% 30.03 in 2.0 mi NE 17.3 mph 25.3 mph N/A Snow Light Snow
1:55 AM 8.6 °F -10.0 °F 4.6 °F 84% 30.04 in 2.5 mi NE 18.4 mph 21.9 mph N/A Snow Light Snow
2:14 AM 8.6 °F -9.5 °F 5.4 °F 87% 30.05 in 1.2 mi NE 17.3 mph 26.5 mph N/A Snow Light Snow
2:35 AM 8.4 °F -9.2 °F 5.4 °F 87% 30.07 in 1.5 mi ENE 16.1 mph 23.0 mph N/A Snow Light Snow
2:55 AM 7.9 °F -9.9 °F 4.8 °F 87% 30.08 in 1.5 mi NE 16.1 mph 26.5 mph N/A Snow Light Snow
3:15 AM 7.7 °F -11.2 °F 4.1 °F 85% 30.09 in 1.8 mi NE 18.4 mph 25.3 mph N/A Snow Light Snow
3:35 AM 7.5 °F -10.9 °F 4.1 °F 86% 30.10 in 1.5 mi NE 17.3 mph 25.3 mph N/A Snow Light Snow
3:55 AM 7.0 °F -12.6 °F 3.6 °F 86% 30.11 in 2.0 mi NE 19.6 mph 25.3 mph N/A Snow Light Snow
4:15 AM 6.6 °F -11.5 °F 3.2 °F 86% 30.13 in 1.8 mi NE 16.1 mph 23.0 mph N/A Snow Light Snow
4:35 AM 5.9 °F -11.8 °F 2.3 °F 85% 30.14 in 2.0 mi NE 15.0 mph 23.0 mph N/A Snow Light Snow
4:54 AM 5.9 °F -11.8 °F 2.3 °F 85% 30.15 in 2.0 mi ENE 15.0 mph 18.4 mph N/A Snow Light Snow
5:15 AM 5.5 °F -12.3 °F 1.8 °F 84% 30.16 in 2.5 mi NE 15.0 mph 21.9 mph N/A Snow Light Snow
5:35 AM 5.0 °F -13.0 °F 1.0 °F 84% 30.18 in 2.5 mi NE 15.0 mph 19.6 mph N/A Snow Light Snow
5:54 AM 5.0 °F -10.8 °F 1.4 °F 85% 30.19 in 1.2 mi NNE 11.5 mph 18.4 mph N/A Snow Light Snow
6:15 AM 4.5 °F -13.7 °F 0.5 °F 84% 30.21 in 1.8 mi NE 15.0 mph 19.6 mph N/A Snow Light Snow
6:35 AM 3.9 °F -13.0 °F -0.0 °F 84% 30.22 in 1.2 mi NNE 12.7 mph 19.6 mph N/A Snow Light Snow
6:55 AM 3.2 °F -12.2 °F -1.5 °F 81% 30.24 in 2.5 mi NNE 10.4 mph 17.3 mph N/A Snow Light Snow
7:15 AM 2.7 °F -13.8 °F -1.8 °F 81% 30.25 in 2.0 mi NE 11.5 mph 19.6 mph N/A Snow Light Snow
7:35 AM 2.3 °F -12.4 °F -2.2 °F 81% 30.26 in 1.8 mi NE 9.2 mph 16.1 mph N/A Snow Light Snow
7:55 AM 2.3 °F -15.0 °F -2.4 °F 81% 30.27 in 3.0 mi NE 12.7 mph 16.1 mph N/A Snow Light Snow
8:15 AM 2.3 °F -12.4 °F -2.6 °F 80% 30.28 in 1.5 mi NE 9.2 mph - N/A Snow Light Snow
8:35 AM 2.3 °F -12.4 °F -2.4 °F 81% 30.29 in 1.5 mi NNE 9.2 mph - N/A Snow Light Snow
8:55 AM 2.3 °F -11.4 °F -2.7 °F 79% 30.30 in 2.5 mi NNE 8.1 mph - N/A Snow Light Snow
9:15 AM 2.5 °F -11.1 °F -3.6 °F 76% 30.31 in 4.0 mi NE 8.1 mph - N/A   Haze
9:34 AM 2.3 °F -7.2 °F -3.5 °F 77% 30.32 in 4.0 mi NNE 4.6 mph - N/A   Haze
9:55 AM 2.3 °F -8.8 °F -3.8 °F 76% 30.33 in 5.0 mi NNE 5.8 mph - N/A   Haze
10:15 AM 3.0 °F -8.0 °F -4.0 °F 73% 30.34 in 7.0 mi North 5.8 mph - N/A   Overcast
10:34 AM 2.7 °F -9.7 °F -2.9 °F 78% 30.35 in 1.2 mi North 6.9 mph - N/A Snow Light Snow
10:55 AM 2.8 °F -9.5 °F -3.1 °F 76% 30.37 in 2.0 mi NNW 6.9 mph - N/A   Haze
11:15 AM 2.8 °F -11.7 °F -3.3 °F 76% 30.37 in 3.0 mi NNW 9.2 mph - N/A   Haze
11:35 AM 3.2 °F -9.1 °F -4.0 °F 72% 30.37 in 3.0 mi North 6.9 mph - N/A   Haze
11:55 AM 2.8 °F -12.7 °F -2.9 °F 77% 30.37 in 1.2 mi North 10.4 mph - N/A Snow Light Snow
12:15 PM 3.0 °F -10.5 °F -3.6 °F 74% 30.38 in 3.0 mi NNW 8.1 mph - N/A   Haze
12:35 PM 3.0 °F -8.0 °F -3.8 °F 73% 30.38 in 2.5 mi NW 5.8 mph - N/A Snow Light Snow
12:55 PM 3.0 °F -9.3 °F -3.5 °F 74% 30.38 in 2.5 mi NNW 6.9 mph - N/A   Haze
1:14 PM 3.2 °F -9.1 °F -3.5 °F 74% 30.37 in 3.0 mi NNW 6.9 mph - N/A   Haze
1:35 PM 2.7 °F -12.0 °F -4.2 °F 73% 30.37 in 7.0 mi NW 9.2 mph - N/A   Mostly Cloudy
1:55 PM 2.7 °F -10.9 °F -4.5 °F 72% 30.37 in 10.0 mi NNW 8.1 mph - N/A   Scattered Clouds
2:15 PM 3.4 °F -8.9 °F -5.8 °F 66% 30.37 in 10.0 mi NW 6.9 mph - N/A   Scattered Clouds
2:35 PM 3.6 °F -8.7 °F -4.7 °F 68% 30.37 in 10.0 mi WNW 6.9 mph - N/A   Scattered Clouds
2:55 PM 4.1 °F -11.1 °F -4.7 °F 67% 30.37 in 10.0 mi NW 10.4 mph 18.4 mph N/A   Scattered Clouds
3:15 PM 4.6 °F -9.5 °F -4.5 °F 66% 30.38 in 10.0 mi NW 9.2 mph - N/A   Scattered Clouds
3:35 PM 3.2 °F -12.2 °F -6.3 °F 65% 30.38 in 10.0 mi NW 10.4 mph - N/A   Scattered Clouds
3:55 PM 3.2 °F -13.1 °F -6.3 °F 65% 30.39 in 10.0 mi NW 11.5 mph 18.4 mph N/A   Clear
4:15 PM 3.2 °F -11.3 °F -6.2 °F 65% 30.39 in 10.0 mi WNW 9.2 mph - N/A   Clear
4:35 PM 3.4 °F -7.5 °F -6.7 °F 63% 30.39 in 10.0 mi NW 5.8 mph - N/A   Clear
4:54 PM 3.2 °F -11.3 °F -6.0 °F 66% 30.40 in 10.0 mi WNW 9.2 mph - N/A   Clear
5:15 PM 2.7 °F -9.7 °F -6.7 °F 65% 30.40 in 10.0 mi West 6.9 mph - N/A   Clear
5:35 PM 1.4 °F -9.9 °F -6.3 °F 70% 30.40 in 10.0 mi West 5.8 mph - N/A   Clear
5:55 PM 0.9 °F -11.9 °F -6.2 °F 72% 30.40 in 10.0 mi WNW 6.9 mph - N/A   Clear
6:15 PM 0.1 °F -9.7 °F -6.3 °F 74% 30.40 in 10.0 mi West 4.6 mph - N/A   Clear
6:35 PM -1.3 °F -14.5 °F -7.2 °F 76% 30.40 in 10.0 mi WSW 6.9 mph - N/A   Clear
6:55 PM -1.3 °F -13.1 °F -7.2 °F 76% 30.41 in 10.0 mi WSW 5.8 mph - N/A   Clear
7:15 PM -2.6 °F -14.6 °F -8.1 °F 77% 30.41 in 10.0 mi WSW 5.8 mph - N/A   Clear
7:34 PM -1.8 °F -15.2 °F -7.4 °F 77% 30.40 in 10.0 mi WSW 6.9 mph - N/A   Scattered Clouds
7:55 PM -1.7 °F -14.9 °F -6.9 °F 78% 30.40 in 10.0 mi WSW 6.9 mph - N/A   Clear
8:15 PM -2.6 °F -16.0 °F -7.6 °F 79% 30.39 in 10.0 mi WSW 6.9 mph - N/A   Clear
8:35 PM -4.0 °F -16.3 °F -8.5 °F 81% 30.39 in 10.0 mi SW 5.8 mph - N/A   Clear
8:55 PM -4.5 °F -16.9 °F -9.0 °F 81% 30.38 in 10.0 mi SW 5.8 mph - N/A   Clear
9:15 PM -4.7 °F -15.4 °F -8.9 °F 82% 30.38 in 10.0 mi SW 4.6 mph - N/A   Clear
9:35 PM -5.1 °F -15.8 °F -8.9 °F 84% 30.37 in 10.0 mi SW 4.6 mph - N/A   Clear
9:55 PM -6.3 °F -17.3 °F -10.3 °F 83% 30.36 in 10.0 mi SW 4.6 mph - N/A   Clear
10:14 PM -6.9 °F -17.9 °F -10.8 °F 83% 30.35 in 10.0 mi SSW 4.6 mph - N/A   Clear
10:35 PM -7.4 °F -20.4 °F -11.2 °F 84% 30.34 in 10.0 mi SSW 5.8 mph - N/A   Clear
10:55 PM -6.5 °F -15.3 °F -10.3 °F 84% 30.34 in 10.0 mi SSW 3.5 mph - N/A   Clear
11:14 PM -6.0 °F -21.5 °F -9.6 °F 84% 30.34 in 10.0 mi SW 8.1 mph - N/A   Clear
11:35 PM -4.4 °F -20.6 °F -8.5 °F 82% 30.32 in 10.0 mi SSW 9.2 mph - N/A   Mostly Cloudy
11:55 PM -5.1 °F -20.4 °F -9.4 °F 82% 30.32 in 10.0 mi SW 8.1 mph - N/A   Scattered Clouds